Covington, KY

10:57 AM EDT on August 20, 2017 (GMT -0400)
Cincinnati-Northern KY International

Weather History for KCVG - August, 2014

Change the Weather History Date:

Sunday, August 17, 2014

  Actual Average Record
Temperature  
Mean Temperature 73 °F 75 °F  
Max Temperature 78 °F 85 °F 100 °F (1988)
Min Temperature 68 °F 65 °F 50 °F (1964)
Degree Days  
Heating Degree Days 0 0  
Month to date heating degree days 0 0  
Since 1 June heating degree days 8 15  
Since 1 July heating degree days 5 0  
Cooling Degree Days 8 10  
Month to date cooling degree days 131 179  
Year to date cooling degree days 756 838  
Since 1 June cooling degree days 622 744  
Growing Degree Days 23 (Base 50)    
Moisture  
Dew Point 66 °F    
Average Humidity 77    
Maximum Humidity 84    
Minimum Humidity 69    
Precipitation  
Precipitation 0.08 in 0.12 in 1.65 in (1876)
Month to date precipitation 2.05 1.93  
Year to date precipitation 28.57 28.31  
Snow  
Snow 0.00 in 0.00 in 0.00 in ()
Month to date snowfall 0.0 0.0  
Since 1 June snowfall 0.0 0.0  
Since 1 July snowfall 0.0 0.0  
Snow Depth 0.00 in    
Sea Level Pressure  
Sea Level Pressure 29.94 in    
Wind  
Wind Speed 6 mph (SSE)    
Max Wind Speed 17 mph    
Max Gust Speed 20 mph    
Visibility 8 miles    
Events Rain    
T = Trace of Precipitation, MM = Missing Value Source: NWS Daily Summary

Daily Weather History Graph

Daily Weather History Graph

Search for Another Location

Airport or City:

Trip Planner

Search our weather history database for the weather conditions in past years. The results will help you decide how hot, cold, wet, or windy it might be!

Date:

Astronomy

Aug. 17, 2014 Rise Set
Actual Time 6:53 AM EDT 8:30 PM EDT
Civil Twilight 6:25 AM EDT 8:59 PM EDT
Nautical Twilight 5:51 AM EDT 9:33 PM EDT
Astronomical Twilight 5:14 AM EDT 10:09 PM EDT
Moon 12:18 AM EDT (8/17) 2:34 PM EDT (8/17)
Length of Visible Light 14h 33m
Length of Day
13h 37m
Waning Gibbous, 48% of the Moon is Illuminated
Aug 17
Waning Gibbous
Aug 25
New
Sep 2
First Quarter
Sep 8
Full
Sep 15
Last Quarter

Hourly Weather History & Observations

Time (EDT) Temp. Dew Point Humidity Pressure Visibility Wind Dir Wind Speed Gust Speed Precip Events Conditions
12:52 AM 71.6 °F 64.4 °F 78% 30.01 in 10.0 mi West 5.8 mph - N/A   Overcast
1:52 AM 71.1 °F 64.9 °F 81% 29.99 in 9.0 mi SW 3.5 mph - N/A   Overcast
2:52 AM 69.8 °F 64.4 °F 83% 30.00 in 7.0 mi SSW 3.5 mph - N/A   Overcast
3:52 AM 70.0 °F 64.9 °F 84% 29.96 in 9.0 mi South 3.5 mph - N/A   Overcast
4:52 AM 69.1 °F 64.0 °F 84% 29.96 in 9.0 mi South 3.5 mph - N/A   Overcast
5:52 AM 70.0 °F 64.0 °F 81% 29.95 in 10.0 mi Calm Calm - N/A   Overcast
6:52 AM 70.0 °F 63.0 °F 78% 29.95 in 10.0 mi SSE 3.5 mph - N/A   Overcast
7:52 AM 70.0 °F 64.0 °F 81% 29.96 in 7.0 mi SE 3.5 mph - N/A   Overcast
8:52 AM 73.0 °F 64.9 °F 76% 29.96 in 7.0 mi ESE 4.6 mph - 0.00 in   Overcast
9:52 AM 75.0 °F 64.9 °F 71% 29.96 in 8.0 mi SE 8.1 mph - N/A   Overcast
10:52 AM 75.0 °F 66.0 °F 73% 29.97 in 8.0 mi South 4.6 mph - N/A   Overcast
11:52 AM 75.0 °F 66.0 °F 73% 29.96 in 7.0 mi SSE 5.8 mph - N/A   Overcast
12:52 PM 75.9 °F 66.9 °F 74% 29.95 in 7.0 mi SSE 10.4 mph - N/A   Overcast
1:52 PM 77.0 °F 68.0 °F 74% 29.93 in 7.0 mi SSE 8.1 mph - N/A   Overcast
2:52 PM 75.9 °F 68.0 °F 76% 29.93 in 7.0 mi South 5.8 mph - 0.00 in   Overcast
3:32 PM 77.0 °F 68.0 °F 74% 29.96 in 7.0 mi SSE 8.1 mph - N/A   Overcast
3:52 PM 78.1 °F 68.0 °F 71% 29.92 in 8.0 mi South 8.1 mph - N/A   Overcast
4:52 PM 77.0 °F 68.0 °F 74% 29.92 in 10.0 mi South 8.1 mph - N/A   Mostly Cloudy
5:52 PM 77.0 °F 68.0 °F 74% 29.91 in 10.0 mi South 5.8 mph - N/A   Overcast
6:22 PM 77.0 °F 68.0 °F 74% 29.94 in 9.0 mi SSE 11.5 mph - N/A   Mostly Cloudy
6:52 PM 77.0 °F 68.0 °F 74% 29.91 in 9.0 mi SSE 10.4 mph - N/A   Overcast
7:32 PM 75.2 °F 68.0 °F 78% 29.92 in 8.0 mi SE 9.2 mph - N/A   Overcast
7:52 PM 75.9 °F 68.0 °F 76% 29.89 in 8.0 mi ESE 6.9 mph - N/A   Overcast
8:52 PM 73.9 °F 68.0 °F 82% 29.89 in 7.0 mi SSE 6.9 mph - N/A   Mostly Cloudy
9:52 PM 73.9 °F 66.9 °F 79% 29.90 in 8.0 mi SE 8.1 mph - N/A   Mostly Cloudy
10:52 PM 73.0 °F 66.9 °F 81% 29.90 in 8.0 mi SE 6.9 mph - N/A   Overcast
11:52 PM 73.0 °F 68.0 °F 84% 29.89 in 6.0 mi SE 9.2 mph - 0.00 in Rain Light Rain